Regional Weather Roundup
Issued by NWS

Home | Current Version | Previous Version | Text Only | Print | Product List | Glossary On
Versions: 1 2 3 4 5 6 7 8 9 10 11 12 13 14 15 16 17 18 19 20 21 22 23 24 25 26 27 28 29 30 31 32 33 34 35 36 37 38 39 40 41 42 43 44 45 46 47 48 49 50
000
ASUS44 KOUN 231110
RWROK

WEATHER ROUNDUP FOR OKLAHOMA
NATIONAL WEATHER SERVICE NORMAN OK
600 AM CDT MON OCT 23 2017

NOTE: "FAIR" INDICATES FEW OR NO CLOUDS BELOW 12,000 FEET WITH NO
      SIGNIFICANT WEATHER AND/OR OBSTRUCTIONS TO VISIBILITY.

OKZ001>007-009>012-014-015-017-231200-
NORTHWEST OKLAHOMA AND THE PANHANDLE

CITY           SKY/WX    TMP DP  RH WIND       PRES   REMARKS
GAGE           CLOUDY    44  35  70 W9        30.03S
GUYMON         CLOUDY    46  36  68 NW7       30.07R
ENID/WOODRING  CLEAR     45  43  93 S7        30.00F
$$

OKZ016-021>023-033>039-044-045-231200-
SOUTHWEST OKLAHOMA

CITY           SKY/WX    TMP DP  RH WIND       PRES   REMARKS
LAWTON/REGL    CLEAR     47  44  90 W3        30.09S
LAWTON/FT SILL CLEAR     49  42  75 CALM      30.07F
FREDERICK      CLEAR     48  42  80 SW6       30.06F HAZE
CLINTON        CLEAR     50  36  58 SW15      30.07S
HOBART         CLOUDY    48  41  76 SW8       30.08S HAZE
ALTUS AFB      CLEAR     43  39  87 SE3       30.08F
$$

OKZ018>020-024>031-231200-
CENTRAL OKLAHOMA

CITY           SKY/WX    TMP DP  RH WIND       PRES   REMARKS
OKLAHOMA CITY  PTCLDY    50  39  66 S7        30.05F
OKC/WILEY POST CLEAR     51  42  71 SW12      30.04F
OKC/TINKER AFB CLEAR     46  38  73 S8        30.05F
STILLWATER     CLEAR     47  39  74 SW5       30.03F
GUTHRIE        CLEAR     47  40  76 S6        30.03F
$$

OKZ008-013-054>072-231200-
NORTHEAST OKLAHOMA

CITY           SKY/WX    TMP DP  RH WIND       PRES   REMARKS
TULSA          CLEAR     48  41  76 CALM      30.03F
TULSA/JONES    CLEAR     43  41  93 CALM      30.05S
PONCA CITY     CLEAR     49  39  68 SW3       30.00F
BARTLESVILLE   CLEAR     41  38  89 CALM      30.02F
MUSKOGEE       FOG       42  42 100 S5        30.07F VSB 1/2
$$

OKZ032-040>043-046>053-073>077-231200-
SOUTH CENTRAL/SOUTHEAST OKLAHOMA

CITY           SKY/WX    TMP DP  RH WIND       PRES   REMARKS
ARDMORE/DWNTWN CLEAR     43  41  93 CALM      30.09S
MCALESTER      MOCLDY    43  41  93 CALM      30.08S
$$





USA.gov is the U.S. government's official web portal to all federal, state and local government web resources and services.